Location: Karlskoga
(59.3269°N, 14.5116°E)
Time: 22:37:14
(UTC+01:00)

ISS - Pass Details

Date: 05 December 2021
Orbit: 413 x 422 km, 51.6° (Epoch: 23 January)

Event Time Altitude Azimuth Distance (km) Brightness Sun altitude
Rises 17:03:58 0° 263° (W) 2,386 1.7 -13.2°
Reaches altitude 10° 17:06:41 10° 240° (WSW) 1,517 0.5 -13.6°
Maximum altitude 17:08:46 15° 202° (SSW) 1,224 -0.8 -13.8°
Drops below altitude 10° 17:10:51 10° 164° (SSE) 1,510 -0.9 -14.0°
Enters shadow 17:13:34 - 141° (SE) 2,381 -0.1 -14.4°
